STARLINK-2217, 48568

Orbit data source: Space-Track

STARLINK-2217, 48568 is a payload satellite owned by SpaceX/Seattle (US) in LEO that was launched on Sat, 15 May 2021 UTC via an FALCON 9 launch vehicle from the Air Force Eastern Test Range (AFETR). Payload-class satellites include a variety of spacecraft equipped with specific instruments for various scientific and technological missions. These include communications satellites like Starlink; space stations such as the ISS; scientific satellites like the Hubble; Earth observation satellites from companies like Planet Labs, Umbra, and HawkEye 360; GPS; miniature CubeSats for education and research; and military/defense satellites.

Loading next visibility...
Identifier
48568, 2021-041R
Orbit
LEO
Country
Flag of USUS
Related business
Manufacturer
SpaceX/Seattle
Mission
Operational Commercial Communications
Bus & Motor
STARLINK, Unknown motor
Mass
260 kg wet, ~248 kg dry
Launch date (UTC)
2021-05-15 (5 years ago)
Launch vehicle
FALCON 9
Launch site
Air Force Eastern Test Range (AFETR)
Object type
Payload
Rocket body
Debris
Shape & HBR
Box + 1 Pan, 10.1 m
Radar Cross Section
13.562 m², Large (>1 m²)

Expand to show TLE details & history
Last TLE update: 21 hours ago

TLE from 21 hours ago
0 STARLINK-2217
1 48568U 21041R   25348.74727566  .00001520  00000-0  12091-3 0  9999
2 48568  53.0529 152.9402 0001358  92.8912 267.2232 15.06394004252395
Epoch: 2025-12-14T17:56Z
TLE epoch observation values (Epoch: 2025-12-14T17:56:04.617Z)
Latitude
-0.00003°
Longitude
160.26519°
Altitude
548.155 km
Speed
7.589 km/s
True Right ascension
10h 11m 45s
True Declination
0° 00' 00"
Sunlit
Object was in daylight at epoch
Visualization orbit readout
Latitude
Unknown
Longitude
Unknown
Altitude
Unknown
Speed
Unknown
Apparent Right ascension
Unknown
Apparent Declination
Unknown
Sunlit
N/A
Visualization observer readout
Local Sidereal Time
13:20:31
Azimuth
Unknown
Elevation
Unknown
Doppler factor
Unknown
Orbital elements
Apogee altitude
548.441 km
Perigee altitude
546.56 km
Semi-major axis
6,925.638 km
Eccentricity
0.00014
Inclination
53.0529°
RAAN
152.9402°
Arg. of periapsis
92.8912°
True anomaly
267.20766°
Mean anomaly
267.2232°
Eccentric anomaly
267.21543°
Mean motion
3.76577 °/min
Orbital period
95.6 mins
BSTAR
0.00012091
Loading maneuver chart data...
Computing Atmospheric mass density...
Loading historical data...
Loading historical data...
Loading historical data...
Loading historical data...
Loading historical data...
Loading historical data...
Loading historical data...

Documentation

Showing up to 5 results
|